Hourly Weather Godzimierz

Today, 15 May, Saturday

Time Temperature Precipitation Wind Pressure Humidity
00:00 +9°C° 0 mm 3 mps 741 mmHg 93%
01:00 +9°C° 0 mm 3 mps 741 mmHg 93%
02:00 +9°C° 0 mm 3 mps 741 mmHg 93%
03:00 +8°C° 0 mm 4 mps 741 mmHg 93%
04:00 +8°C° 0 mm 4 mps 741 mmHg 92%
05:00 +10°C° 0 mm 4 mps 742 mmHg 87%
06:00 +10°C° 0 mm 5 mps 742 mmHg 81%
07:00 +10°C° 0 mm 5 mps 742 mmHg 76%
08:00 +13°C° 0 mm 5 mps 743 mmHg 71%
09:00 +14°C° 0 mm 5 mps 743 mmHg 66%
10:00 +15°C° 0 mm 4 mps 743 mmHg 61%
11:00 +17°C° 0 mm 4 mps 743 mmHg 58%
12:00 +18°C° 0 mm 3 mps 743 mmHg 54%
13:00 +19°C° 0 mm 3 mps 742 mmHg 51%
14:00 +19°C° 0 mm 2 mps 742 mmHg 54%
15:00 +18°C° 0 mm 2 mps 742 mmHg 57%
16:00 +18°C° 0 mm 2 mps 742 mmHg 59%
17:00 +17°C° 0 mm 2 mps 742 mmHg 63%
18:00 +16°C° 0 mm 2 mps 742 mmHg 67%
19:00 +14°C° 0 mm 3 mps 741 mmHg 71%
20:00 +13°C° 0 mm 3 mps 741 mmHg 75%
21:00 +13°C° 0 mm 3 mps 741 mmHg 78%
22:00 +12°C° 0 mm 3 mps 741 mmHg 82%
23:00 +12°C° 0.2 mm 3 mps 741 mmHg 84%

Tomorrow, 16 May, Sunday

Time Temperature Precipitation Wind Pressure Humidity
00:00 +12°C° 0.2 mm 3 mps 741 mmHg 87%
01:00 +12°C° 0.2 mm 3 mps 741 mmHg 90%
02:00 +12°C° 0.4 mm 3 mps 741 mmHg 92%
03:00 +12°C° 0.4 mm 2 mps 741 mmHg 94%
04:00 +12°C° 0.4 mm 2 mps 741 mmHg 96%
05:00 +13°C° 0.1 mm 2 mps 741 mmHg 93%
06:00 +13°C° 0.1 mm 2 mps 741 mmHg 90%
07:00 +14°C° 0.1 mm 2 mps 741 mmHg 87%
08:00 +15°C° 0.1 mm 1 mps 741 mmHg 83%
09:00 +15°C° 0.1 mm 1 mps 741 mmHg 78%
10:00 +16°C° 0.1 mm 1 mps 741 mmHg 73%
11:00 +18°C° 0.4 mm 1 mps 741 mmHg 71%
12:00 +17°C° 0.4 mm 2 mps 740 mmHg 70%
13:00 +18°C° 0.4 mm 2 mps 740 mmHg 68%
14:00 +17°C° 1.3 mm 3 mps 740 mmHg 76%
15:00 +14°C° 1.3 mm 3 mps 740 mmHg 84%
16:00 +13°C° 1.3 mm 3 mps 739 mmHg 92%
17:00 +12°C° 1.2 mm 3 mps 739 mmHg 93%
18:00 +13°C° 1.2 mm 2 mps 739 mmHg 95%
19:00 +13°C° 1.2 mm 1 mps 739 mmHg 96%
20:00 +12°C° 0.1 mm 1 mps 739 mmHg 95%
21:00 +12°C° 0.1 mm 1 mps 740 mmHg 95%
22:00 +11°C° 0.1 mm 1 mps 740 mmHg 95%
23:00 +11°C° 0 mm 1 mps 740 mmHg 95%

Day after tomorrow, 17 May, Monday

Time Temperature Precipitation Wind Pressure Humidity
00:00 +9°C° 0 mm 2 mps 740 mmHg 94%
01:00 +9°C° 0 mm 2 mps 740 mmHg 94%
02:00 +9°C° 0 mm 2 mps 740 mmHg 94%
03:00 +8°C° 0 mm 2 mps 740 mmHg 93%
04:00 +8°C° 0 mm 2 mps 740 mmHg 93%
05:00 +10°C° 0 mm 2 mps 740 mmHg 89%
06:00 +12°C° 0 mm 2 mps 740 mmHg 85%
07:00 +14°C° 0 mm 2 mps 741 mmHg 81%
08:00 +14°C° 0.1 mm 3 mps 741 mmHg 77%
09:00 +16°C° 0.1 mm 3 mps 740 mmHg 73%
10:00 +17°C° 0.1 mm 3 mps 740 mmHg 68%
11:00 +17°C° 0.2 mm 4 mps 740 mmHg 69%
12:00 +17°C° 0.2 mm 4 mps 740 mmHg 69%
13:00 +17°C° 0.2 mm 4 mps 740 mmHg 69%
14:00 +15°C° 0.3 mm 4 mps 740 mmHg 74%
15:00 +14°C° 0.3 mm 3 mps 740 mmHg 78%
16:00 +13°C° 0.3 mm 3 mps 740 mmHg 83%
17:00 +13°C° 0.4 mm 3 mps 740 mmHg 85%
18:00 +13°C° 0.4 mm 2 mps 740 mmHg 88%
19:00 +12°C° 0.4 mm 2 mps 740 mmHg 90%
20:00 +12°C° 0.3 mm 2 mps 740 mmHg 90%
21:00 +12°C° 0.3 mm 2 mps 740 mmHg 91%
22:00 +12°C° 0.3 mm 2 mps 740 mmHg 92%
23:00 +10°C° 0.1 mm 3 mps 740 mmHg 93%

18 May, Tuesday

Time Temperature Precipitation Wind Pressure Humidity
00:00 +10°C° 0.1 mm 4 mps 740 mmHg 93%
01:00 +8°C° 0.1 mm 5 mps 740 mmHg 94%
02:00 +8°C° 0 mm 4 mps 740 mmHg 95%
03:00 +7°C° 0 mm 4 mps 740 mmHg 95%
04:00 +6°C° 0 mm 4 mps 740 mmHg 96%
05:00 +7°C° 0 mm 5 mps 741 mmHg 92%
06:00 +9°C° 0 mm 5 mps 741 mmHg 88%
07:00 +10°C° 0 mm 6 mps 741 mmHg 84%
08:00 +11°C° 0.2 mm 6 mps 741 mmHg 80%
09:00 +13°C° 0.2 mm 6 mps 741 mmHg 75%
10:00 +14°C° 0.2 mm 6 mps 742 mmHg 70%
11:00 +14°C° 0.2 mm 6 mps 742 mmHg 71%
12:00 +14°C° 0.2 mm 6 mps 742 mmHg 72%
13:00 +13°C° 0.2 mm 6 mps 742 mmHg 73%
14:00 +14°C° 0.1 mm 5 mps 742 mmHg 72%
15:00 +14°C° 0.1 mm 5 mps 742 mmHg 70%
16:00 +14°C° 0.1 mm 5 mps 742 mmHg 69%
17:00 +13°C° 0.1 mm 4 mps 742 mmHg 75%
18:00 +12°C° 0.1 mm 4 mps 743 mmHg 80%
19:00 +11°C° 0.1 mm 3 mps 743 mmHg 86%
20:00 +10°C° 0 mm 3 mps 743 mmHg 88%
21:00 +9°C° 0 mm 3 mps 743 mmHg 91%
22:00 +8°C° 0 mm 3 mps 744 mmHg 94%
23:00 +8°C° 0 mm 3 mps 744 mmHg 94%

19 May, Wednesday

Time Temperature Precipitation Wind Pressure Humidity
00:00 +8°C° 0 mm 3 mps 744 mmHg 95%
01:00 +7°C° 0 mm 3 mps 744 mmHg 95%
02:00 +7°C° 0 mm 3 mps 744 mmHg 95%
03:00 +7°C° 0 mm 3 mps 744 mmHg 95%
04:00 +5°C° 0 mm 3 mps 744 mmHg 95%
05:00 +8°C° 0 mm 3 mps 745 mmHg 90%
06:00 +10°C° 0 mm 4 mps 745 mmHg 85%
07:00 +11°C° 0 mm 4 mps 745 mmHg 80%
08:00 +12°C° 0.3 mm 4 mps 745 mmHg 77%
09:00 +13°C° 0.3 mm 5 mps 745 mmHg 73%
10:00 +14°C° 0.3 mm 5 mps 745 mmHg 70%
11:00 +14°C° 0.4 mm 5 mps 746 mmHg 69%
12:00 +14°C° 0.4 mm 5 mps 746 mmHg 68%
13:00 +14°C° 0.4 mm 5 mps 746 mmHg 67%
14:00 +14°C° 0.2 mm 5 mps 746 mmHg 67%
15:00 +14°C° 0.2 mm 5 mps 746 mmHg 66%
16:00 +14°C° 0.2 mm 4 mps 746 mmHg 65%
17:00 +13°C° 0 mm 4 mps 746 mmHg 70%
18:00 +11°C° 0 mm 3 mps 746 mmHg 75%
19:00 +10°C° 0 mm 3 mps 746 mmHg 80%
20:00 +10°C° 0 mm 3 mps 746 mmHg 83%
21:00 +9°C° 0 mm 3 mps 747 mmHg 86%
22:00 +8°C° 0 mm 3 mps 747 mmHg 88%
23:00 +8°C° 0 mm 3 mps 747 mmHg 90%

20 May, Thursday

Time Temperature Precipitation Wind Pressure Humidity
00:00 +7°C° 0 mm 3 mps 747 mmHg 91%
01:00 +7°C° 0 mm 3 mps 747 mmHg 92%
02:00 +7°C° 0 mm 3 mps 747 mmHg 93%
03:00 +5°C° 0 mm 3 mps 747 mmHg 94%
04:00 +5°C° 0 mm 3 mps 747 mmHg 95%
05:00 +7°C° 0 mm 4 mps 748 mmHg 89%
06:00 +8°C° 0 mm 4 mps 748 mmHg 84%
07:00 +10°C° 0 mm 5 mps 748 mmHg 78%
08:00 +12°C° 0.1 mm 5 mps 748 mmHg 73%
09:00 +13°C° 0.1 mm 5 mps 748 mmHg 68%
10:00 +14°C° 0.1 mm 5 mps 748 mmHg 63%
11:00 +14°C° 0.2 mm 5 mps 748 mmHg 65%
12:00 +14°C° 0.2 mm 5 mps 748 mmHg 67%
13:00 +13°C° 0.2 mm 4 mps 748 mmHg 69%
14:00 +13°C° 0.3 mm 5 mps 747 mmHg 68%
15:00 +14°C° 0.3 mm 5 mps 747 mmHg 67%
16:00 +14°C° 0.3 mm 5 mps 747 mmHg 67%
17:00 +13°C° 0.1 mm 4 mps 747 mmHg 72%
18:00 +12°C° 0.1 mm 3 mps 747 mmHg 77%
19:00 +11°C° 0.1 mm 3 mps 747 mmHg 83%
20:00 +10°C° 0 mm 3 mps 746 mmHg 85%
21:00 +9°C° 0 mm 3 mps 746 mmHg 88%
22:00 +8°C° 0 mm 3 mps 746 mmHg 90%
23:00 +8°C° 0 mm 3 mps 746 mmHg 90%
Show more